Location: Goettingen
(51.5300°N, 9.9433°E)
Time: 03:13:23
(UTC+01:00)

Envisat - Visible Passes

Search period start: 28 February 2024 00:00
Search period end: 09 March 2024 00:00
Orbit: 762 x 764 km, 98.3° (Epoch: 27 February)

Date Brightness Start Highest point End Pass type
(mag) Time Alt. Az. Time Alt. Az. Time Alt. Az.
28 Feb 5.4 02:38:54 10° NE 02:41:16 18° ENE 02:41:16 18° ENE visible
28 Feb 3.1 04:16:57 10° NNE 04:21:27 65° NNW 04:21:27 65° NNW visible
28 Feb 4.7 05:57:27 10° NNW 06:00:11 15° NW 06:01:36 13° WNW visible
29 Feb 3.7 03:39:40 10° NNE 03:43:51 51° ENE 03:43:51 51° ENE visible
29 Feb 4.0 05:19:13 10° N 05:23:21 26° WNW 05:24:01 25° WNW visible
01 Mar 4.8 03:02:43 10° NNE 03:06:15 28° ENE 03:06:15 28° ENE visible
01 Mar 3.2 04:41:29 10° N 04:46:20 47° WNW 04:46:26 46° WNW visible
02 Mar 5.6 02:26:30 10° NE 02:28:40 15° ENE 02:28:40 15° ENE visible
02 Mar 2.9 04:04:02 10° NNE 04:08:50 80° NNE 04:08:50 80° NNE visible
02 Mar 4.5 05:44:09 10° NNW 05:47:27 18° NW 05:49:00 16° WNW visible
03 Mar 3.9 03:26:50 10° NNE 03:31:15 45° E 03:31:15 45° E visible
03 Mar 3.8 05:06:08 10° N 05:10:34 31° WNW 05:11:25 29° W visible
04 Mar 5.0 02:50:04 10° NE 02:53:39 23° E 02:53:39 23° E visible
04 Mar 3.0 04:28:30 10° N 04:33:30 58° WNW 04:33:49 57° W visible
04 Mar 4.9 06:09:31 10° NNW 06:11:29 12° NW 06:13:26 10° WNW visible
05 Mar 5.7 02:14:28 10° ENE 02:16:03 12° E 02:16:03 12° E visible
05 Mar 3.0 03:51:08 10° NNE 03:56:14 73° ESE 03:56:14 73° ESE visible
05 Mar 4.3 05:30:56 10° N 05:34:43 21° WNW 05:36:24 18° W visible
06 Mar 4.2 03:14:03 10° NNE 03:18:38 37° E 03:18:38 37° E visible
06 Mar 3.5 04:53:04 10° N 04:57:45 38° WNW 04:58:48 34° W visible
07 Mar 5.2 02:37:30 10° NE 02:41:02 19° E 02:41:02 19° E visible
07 Mar 2.9 04:15:32 10° NNE 04:20:37 73° WNW 04:21:13 65° WSW visible
07 Mar 4.7 05:56:00 10° NNW 05:58:46 15° NW 06:01:23 10° W visible
08 Mar 3.4 03:38:15 10° NNE 03:43:17 58° E 03:43:37 57° ESE visible
08 Mar 4.1 05:17:47 10° N 05:21:56 26° WNW 05:23:47 21° W visible
